2023/06/17 00:00:00, 0.3,17.0
2023/06/17 00:10:00, 0.3,16.8
2023/06/17 00:20:00, 0.3,16.9
2023/06/17 00:30:00, 0.3,16.9
2023/06/17 00:40:00, 0.3,16.9
2023/06/17 00:50:00, 0.3,16.7
2023/06/17 01:00:00, 0.3,16.8
2023/06/17 01:10:00, 0.3,16.9
2023/06/17 01:20:00, 0.3,16.6
2023/06/17 01:30:00, 0.3,16.6
2023/06/17 01:40:00, 0.3,16.8
2023/06/17 01:50:00, 0.3,16.8
2023/06/17 02:00:00, 0.3,16.5
2023/06/17 02:10:00, 0.3,16.4
2023/06/17 02:20:00, 0.3,16.4
2023/06/17 02:30:00, 0.3,16.2
2023/06/17 02:40:00, 0.3,15.9
2023/06/17 02:50:00, 0.3,15.9
2023/06/17 03:00:00, 0.3,15.9
2023/06/17 03:10:00, 0.3,15.7
2023/06/17 03:20:00, 0.2,15.7
2023/06/17 03:30:00, 0.2,15.6
2023/06/17 03:40:00, 0.2,15.4
2023/06/17 03:50:00, 0.2,15.2
2023/06/17 04:00:00, 0.2,15.2
2023/06/17 04:10:00, 0.3,15.2
2023/06/17 04:20:00, 0.3,14.9
2023/06/17 04:30:00, 0.2,15.1
2023/06/17 04:40:00, 0.2,14.9
2023/06/17 04:50:00, 0.3,14.2
2023/06/17 05:00:00, 0.2,14.8
2023/06/17 05:10:00, 0.2,14.7
2023/06/17 05:20:00, 0.3,14.8
2023/06/17 05:30:00, 0.3,14.8
2023/06/17 05:40:00, 0.3,15.2
2023/06/17 05:50:00, 0.3,15.2
2023/06/17 06:00:00, 0.3,15.3
2023/06/17 06:10:00, 0.3,15.2
2023/06/17 06:20:00, 0.2,15.4
2023/06/17 06:30:00, 0.3,15.6
2023/06/17 06:40:00, 0.3,16.1
2023/06/17 06:50:00, 0.3,16.3
2023/06/17 07:00:00, 0.3,16.7
2023/06/17 07:10:00, 0.3,17.2
2023/06/17 07:20:00, 0.3,17.5
2023/06/17 07:30:00, 0.3,18.0
2023/06/17 07:40:00, 0.3,18.6
2023/06/17 07:50:00, 0.4,19.0
2023/06/17 08:00:00, 0.3,19.8
2023/06/17 08:10:00, 0.2,19.9
2023/06/17 08:20:00, 0.2,20.8
2023/06/17 08:30:00, 0.2,21.7
2023/06/17 08:40:00, 0.2,22.4
2023/06/17 08:50:00, 0.2,23.1
2023/06/17 09:00:00, 0.2,24.0
2023/06/17 09:10:00, 0.2,24.5
2023/06/17 09:20:00, 0.2,25.3
2023/06/17 09:30:00, 0.1,25.8
2023/06/17 09:40:00, 0.1,26.3
2023/06/17 09:50:00, 0.2,26.9
2023/06/17 10:00:00, 0.2,27.1
2023/06/17 10:10:00, 0.1,28.0
2023/06/17 10:20:00, 0.1,27.8
2023/06/17 10:30:00, 0.2,27.8
2023/06/17 10:40:00, 0.4,28.2
2023/06/17 10:50:00, 0.3,28.9
2023/06/17 11:00:00, 0.4,29.0
2023/06/17 11:10:00, 0.3,28.9
2023/06/17 11:20:00, 0.3,29.9
2023/06/17 11:30:00, 0.3,30.2
2023/06/17 11:40:00, 0.4,31.2
2023/06/17 11:50:00, 0.4,30.9
2023/06/17 12:00:00, 0.5,31.2
2023/06/17 12:10:00, 0.5,31.2
2023/06/17 12:20:00, 0.5,32.1
2023/06/17 12:30:00, 0.5,31.5
2023/06/17 12:40:00, 0.5,31.4
2023/06/17 12:50:00, 0.5,32.0
2023/06/17 13:00:00, 0.5,31.8
2023/06/17 13:10:00, 0.5,32.4
2023/06/17 13:20:00, 0.5,33.2
2023/06/17 13:30:00, 0.5,32.8
2023/06/17 13:40:00, 0.5,33.5
2023/06/17 13:50:00, 0.5,33.7
2023/06/17 14:00:00, 0.5,34.6
2023/06/17 14:10:00, 0.5,34.4
2023/06/17 14:20:00, 0.4,34.2
2023/06/17 14:30:00, 0.4,34.4
2023/06/17 14:40:00, 0.4,34.7
2023/06/17 14:50:00, 0.3,34.1
2023/06/17 15:00:00, 0.2,34.5
2023/06/17 15:10:00, 0.3,32.2
2023/06/17 15:20:00, 0.4,31.4
2023/06/17 15:30:00, 0.4,32.4
2023/06/17 15:40:00, 0.3,32.5
2023/06/17 15:50:00, 0.4,35.0
2023/06/17 16:00:00, 0.3,35.9
2023/06/17 16:10:00, 0.4,36.2
2023/06/17 16:20:00, 0.4,36.4
2023/06/17 16:30:00, 0.3,36.6
2023/06/17 16:40:00, 0.3,37.3
2023/06/17 16:50:00, 0.3,37.1
2023/06/17 17:00:00, 0.2,34.3
2023/06/17 17:10:00, 0.2,35.4
2023/06/17 17:20:00, 0.2,34.3
2023/06/17 17:30:00, 0.2,36.7
2023/06/17 17:40:00, 0.2,34.6
2023/06/17 17:50:00, 0.2,34.3
2023/06/17 18:00:00, 0.2,32.6
2023/06/17 18:10:00, 0.2,30.6
2023/06/17 18:20:00, 0.1,27.0
2023/06/17 18:30:00, 0.0,25.9
2023/06/17 18:40:00, 0.1,24.6
2023/06/17 18:50:00, 0.1,24.0
2023/06/17 19:00:00, 0.0,23.1
2023/06/17 19:10:00, 0.1,22.6
2023/06/17 19:20:00, 0.1,22.2
2023/06/17 19:30:00, 0.1,21.8
2023/06/17 19:40:00, 0.1,21.6
2023/06/17 19:50:00, 0.1,21.2
2023/06/17 20:00:00, 0.1,20.8
2023/06/17 20:10:00, 0.2,20.5
2023/06/17 20:20:00, 0.2,20.2
2023/06/17 20:30:00, 0.2,20.1
2023/06/17 20:40:00, 0.2,19.8
2023/06/17 20:50:00, 0.2,19.5
2023/06/17 21:00:00, 0.2,19.5
2023/06/17 21:10:00, 0.2,19.0
2023/06/17 21:20:00, 0.2,19.2
2023/06/17 21:30:00, 0.2,18.9
2023/06/17 21:40:00, 0.2,18.8
2023/06/17 21:50:00, 0.2,18.8
2023/06/17 22:00:00, 0.2,18.5
2023/06/17 22:10:00, 0.2,18.5
2023/06/17 22:20:00, 0.2,18.5
2023/06/17 22:30:00, 0.1,18.3
2023/06/17 22:40:00, 0.1,18.4
2023/06/17 22:50:00, 0.2,17.8
2023/06/17 23:00:00, 0.2,18.0
2023/06/17 23:10:00, 0.2,18.0
2023/06/17 23:20:00, 0.2,17.7
2023/06/17 23:30:00, 0.2,17.6
2023/06/17 23:40:00, 0.2,17.7
2023/06/17 23:50:00, 0.2,17.5
